Tracking 19827 objects as of 21-Aug-2019
HD Live streaming from Space Station
objects crossing your sky now

FENGYUN 1C DEB

Track FENGYUN 1C DEB now!
10-day predictions


NORAD ID: 31768
Int'l Code: 1999-025CFT
Perigee: 735.5 km
Apogee: 815.1 km
Inclination: 99.1 °
Period: 100.2 minutes
Semi major axis: 7146 km
RCS: 0.011 m2 (small)
Launch date: May 10, 1999
Source: People's Republic of China (PRC)
Launch site: Taiyaun Space Center, China (TSC)

Note: This is SATELLITE DEBRIS
aabbcc
Your satellite tracking list
Your tracking list is empty




NASA's NSSDC Master Catalog

Two Line Element Set (TLE):
1 31768U 99025CFT 19232.90964212 +.00000470 +00000-0 +17143-3 0  9990
2 31768 099.0577 114.2306 0055682 018.9944 038.0180 14.37087122635281
Source of the keplerian elements: AFSPC